Time,TemperatureF,DewpointF,PressureIn,WindDirection,WindDirectionDegrees,WindSpeedMPH,WindSpeedGustMPH,Humidity,HourlyPrecipIn,Conditions,Clouds,dailyrainin,SoftwareType,DateUTC
2013-11-12 00:00:00,51.7,36.5,30.07,WSW,244,2.0,6.0,56,0.00,,---,0.00,VWS V14.01,2013-11-12 05:00:00,
2013-11-12 00:06:00,51.7,36.5,30.07,West,276,0.0,3.0,56,0.00,,---,0.00,VWS V14.01,2013-11-12 05:06:00,
2013-11-12 00:21:00,51.7,37.0,30.06,WNW,290,0.0,3.0,57,0.00,,---,0.00,VWS V14.01,2013-11-12 05:21:00,
2013-11-12 00:30:00,51.6,36.9,30.06,West,260,2.0,3.0,57,0.00,,---,0.00,VWS V14.01,2013-11-12 05:30:00,
2013-11-12 00:36:00,51.5,37.2,30.06,West,259,0.0,3.0,58,0.00,,---,0.00,VWS V14.01,2013-11-12 05:36:00,
2013-11-12 00:51:00,51.4,37.1,30.05,NE,45,0.0,4.0,58,0.00,,---,0.00,VWS V14.01,2013-11-12 05:51:00,
2013-11-12 01:00:00,51.3,37.5,30.05,WSW,253,0.0,4.0,59,0.00,,---,0.00,VWS V14.01,2013-11-12 06:00:00,
2013-11-12 01:06:00,51.3,37.5,30.05,West,259,1.0,4.0,59,0.00,,---,0.00,VWS V14.01,2013-11-12 06:06:00,
2013-11-12 01:21:00,51.1,37.7,30.04,WSW,251,0.0,4.0,60,0.00,,---,0.00,VWS V14.01,2013-11-12 06:21:00,
2013-11-12 01:30:00,51.1,37.7,30.03,WSW,257,0.0,4.0,60,0.00,,---,0.00,VWS V14.01,2013-11-12 06:30:00,
2013-11-12 01:36:00,51.0,38.0,30.03,West,265,0.0,1.0,61,0.00,,---,0.00,VWS V14.01,2013-11-12 06:36:00,
2013-11-12 01:51:00,50.9,38.4,30.04,West,262,0.0,3.0,62,0.00,,---,0.00,VWS V14.01,2013-11-12 06:51:00,
2013-11-12 02:00:00,50.7,38.6,30.05,West,262,0.0,3.0,63,0.00,,---,0.00,VWS V14.01,2013-11-12 07:00:00,
2013-11-12 02:06:00,50.5,38.4,30.04,West,261,0.0,0.0,63,0.00,,---,0.00,VWS V14.01,2013-11-12 07:06:00,
2013-11-12 02:21:00,50.2,39.3,30.05,West,262,0.0,0.0,66,0.00,,---,0.00,VWS V14.01,2013-11-12 07:21:00,
2013-11-12 02:30:00,49.9,39.0,30.05,West,262,0.0,0.0,66,0.00,,---,0.00,VWS V14.01,2013-11-12 07:30:00,
2013-11-12 02:36:00,49.8,39.3,30.05,West,261,0.0,0.0,67,0.00,,---,0.00,VWS V14.01,2013-11-12 07:36:00,
2013-11-12 02:51:00,49.4,40.0,30.04,West,262,0.0,0.0,70,0.00,,---,0.00,VWS V14.01,2013-11-12 07:51:00,
2013-11-12 03:00:00,49.2,40.2,30.04,West,261,0.0,0.0,71,0.00,,---,0.00,VWS V14.01,2013-11-12 08:00:00,
2013-11-12 03:06:00,49.0,40.0,30.05,West,262,0.0,0.0,71,0.00,,---,0.00,VWS V14.01,2013-11-12 08:06:00,
2013-11-12 03:21:00,48.7,39.7,30.04,West,262,0.0,0.0,71,0.00,,---,0.00,VWS V14.01,2013-11-12 08:21:00,
2013-11-12 03:30:00,48.5,39.9,30.04,West,262,0.0,0.0,72,0.00,,---,0.00,VWS V14.01,2013-11-12 08:30:00,
2013-11-12 03:36:00,48.3,39.3,30.04,West,262,0.0,0.0,71,0.00,,---,0.00,VWS V14.01,2013-11-12 08:36:00,
2013-11-12 03:51:00,48.1,39.5,30.04,West,261,0.0,0.0,72,0.00,,---,0.00,VWS V14.01,2013-11-12 08:51:00,
2013-11-12 04:00:00,48.0,39.8,30.04,West,262,0.0,0.0,73,0.00,,---,0.00,VWS V14.01,2013-11-12 09:00:00,
2013-11-12 04:07:00,47.9,39.7,30.05,West,261,0.0,0.0,73,0.00,,---,0.00,VWS V14.01,2013-11-12 09:07:00,
2013-11-12 04:22:00,47.7,39.8,30.05,West,262,0.0,0.0,74,0.00,,---,0.00,VWS V14.01,2013-11-12 09:22:00,
2013-11-12 04:30:00,47.6,39.7,30.05,West,261,0.0,0.0,74,0.00,,---,0.00,VWS V14.01,2013-11-12 09:30:00,
2013-11-12 04:37:00,47.6,39.7,30.05,West,262,0.0,0.0,74,0.00,,---,0.00,VWS V14.01,2013-11-12 09:37:00,
2013-11-12 04:52:00,47.4,39.5,30.05,West,262,0.0,0.0,74,0.00,,---,0.00,VWS V14.01,2013-11-12 09:52:00,
2013-11-12 05:00:00,47.5,38.9,30.08,East,98,0.0,2.0,72,0.00,,---,0.00,VWS V15.00,2013-11-12 10:00:00,
2013-11-12 05:07:00,47.4,39.9,30.06,West,261,0.0,0.0,75,0.00,,---,0.00,VWS V14.01,2013-11-12 10:07:00,
2013-11-12 05:22:00,47.3,39.8,30.06,West,261,0.0,0.0,75,0.00,,---,0.00,VWS V14.01,2013-11-12 10:22:00,
2013-11-12 05:30:00,47.3,39.8,30.06,West,262,0.0,0.0,75,0.00,,---,0.00,VWS V14.01,2013-11-12 10:30:00,
2013-11-12 05:37:00,47.3,40.1,30.07,West,261,0.0,0.0,76,0.00,,---,0.00,VWS V14.01,2013-11-12 10:37:00,
2013-11-12 05:52:00,47.3,40.1,30.07,West,262,0.0,0.0,76,0.00,,---,0.00,VWS V14.01,2013-11-12 10:52:00,
2013-11-12 06:00:00,47.5,38.9,30.08,East,98,0.0,2.0,72,0.00,,---,0.00,VWS V14.01,2013-11-12 11:00:00,
2013-11-12 06:07:00,48.5,39.2,30.08,ENE,71,2.0,7.0,70,0.00,,---,0.00,VWS V14.01,2013-11-12 11:07:00,
2013-11-12 06:22:00,51.1,41.3,30.09,SW,235,1.0,7.0,69,0.00,,---,0.00,VWS V14.01,2013-11-12 11:22:00,
2013-11-12 06:30:00,51.1,41.7,30.10,NNW,333,0.0,7.0,70,0.00,,---,0.00,VWS V14.01,2013-11-12 11:30:00,
2013-11-12 06:37:00,50.8,41.8,30.11,ENE,66,0.0,8.0,71,0.00,,---,0.00,VWS V14.01,2013-11-12 11:37:00,
2013-11-12 06:52:00,49.6,40.2,30.13,North,355,0.0,8.0,70,0.00,,---,0.00,VWS V14.01,2013-11-12 11:52:00,
2013-11-12 07:00:00,49.0,39.7,30.13,NNE,24,0.0,8.0,70,0.00,,---,0.00,VWS V14.01,2013-11-12 12:00:00,
2013-11-12 07:07:00,48.6,38.9,30.14,North,355,0.0,4.0,69,0.00,,---,0.00,VWS V14.01,2013-11-12 12:07:00,
2013-11-12 07:22:00,47.9,38.6,30.16,NNW,348,0.0,4.0,70,0.00,,---,0.00,VWS V14.01,2013-11-12 12:22:00,
2013-11-12 07:30:00,47.6,38.3,30.16,ENE,59,2.0,5.0,70,0.00,,---,0.00,VWS V14.01,2013-11-12 12:30:00,
2013-11-12 07:37:00,47.2,37.9,30.18,SE,144,1.0,8.0,70,0.00,,---,0.00,VWS V14.01,2013-11-12 12:37:00,
2013-11-12 07:52:00,46.7,37.5,30.19,WNW,285,0.0,8.0,70,0.00,,---,0.00,VWS V14.01,2013-11-12 12:52:00,
2013-11-12 08:00:00,46.3,37.1,30.20,ENE,71,0.0,8.0,70,0.00,,---,0.00,VWS V14.01,2013-11-12 13:00:00,
2013-11-12 08:07:00,46.1,36.9,30.21,NW,325,0.0,7.0,70,0.00,,---,0.00,VWS V14.01,2013-11-12 13:07:00,
2013-11-12 08:22:00,45.5,36.3,30.22,NE,46,0.0,7.0,70,0.00,,---,0.00,VWS V14.01,2013-11-12 13:22:00,
2013-11-12 08:30:00,44.9,34.6,30.23,ENE,71,1.0,7.0,67,0.00,,---,0.00,VWS V14.01,2013-11-12 13:30:00,
2013-11-12 08:37:00,44.2,32.4,30.24,NE,48,0.0,7.0,63,0.00,,---,0.00,VWS V14.01,2013-11-12 13:37:00,
2013-11-12 08:52:00,43.2,31.1,30.24,North,360,0.0,7.0,62,0.00,,---,0.00,VWS V14.01,2013-11-12 13:52:00,
2013-11-12 09:00:00,42.9,30.8,30.25,NNW,348,5.0,7.0,62,0.00,,---,0.00,VWS V14.01,2013-11-12 14:00:00,
2013-11-12 09:07:00,42.8,31.1,30.25,NNW,342,0.0,8.0,63,0.00,,---,0.00,VWS V14.01,2013-11-12 14:07:00,
2013-11-12 09:22:00,42.5,31.6,30.26,NW,325,0.0,8.0,65,0.00,,---,0.00,VWS V14.01,2013-11-12 14:22:00,
2013-11-12 09:30:00,42.4,31.5,30.26,NW,326,0.0,8.0,65,0.00,,---,0.00,VWS V14.01,2013-11-12 14:30:00,
2013-11-12 09:37:00,42.3,31.8,30.27,ENE,64,0.0,3.0,66,0.00,,---,0.00,VWS V14.01,2013-11-12 14:37:00,
2013-11-12 09:52:00,42.1,31.6,30.28,ENE,77,1.0,5.0,66,0.00,,---,0.00,VWS V14.01,2013-11-12 14:52:00,
2013-11-12 10:00:00,42.0,31.9,30.29,South,186,0.0,5.0,67,0.00,,---,0.00,VWS V14.01,2013-11-12 15:00:00,
2013-11-12 10:07:00,41.7,31.6,30.29,WNW,300,0.0,5.0,67,0.00,,---,0.00,VWS V14.01,2013-11-12 15:07:00,
2013-11-12 10:22:00,41.3,31.5,30.29,North,355,1.0,5.0,68,0.00,,---,0.00,VWS V14.01,2013-11-12 15:22:00,
2013-11-12 10:30:00,41.2,30.3,30.30,NNE,33,0.0,5.0,65,0.00,,---,0.00,VWS V14.01,2013-11-12 15:30:00,
2013-11-12 10:37:00,41.1,29.9,30.30,North,9,0.0,3.0,64,0.00,,---,0.00,VWS V14.01,2013-11-12 15:37:00,
2013-11-12 10:52:00,40.7,28.7,30.30,NNW,348,0.0,4.0,62,0.00,,---,0.00,VWS V14.01,2013-11-12 15:52:00,
2013-11-12 11:00:00,40.5,28.1,30.31,East,84,3.0,4.0,61,0.00,,---,0.00,VWS V14.01,2013-11-12 16:00:00,
2013-11-12 11:07:00,40.4,27.6,30.31,East,83,0.0,6.0,60,0.00,,---,0.00,VWS V14.01,2013-11-12 16:07:00,
2013-11-12 11:22:00,40.3,25.4,30.31,NE,45,0.0,6.0,55,0.00,,---,0.00,VWS V14.01,2013-11-12 16:22:00,
2013-11-12 11:30:00,40.2,24.5,30.31,NNE,32,0.0,6.0,53,0.00,,---,0.00,VWS V14.01,2013-11-12 16:30:00,
2013-11-12 11:37:00,40.2,25.3,30.31,West,272,1.0,1.0,55,0.00,,---,0.00,VWS V14.01,2013-11-12 16:37:00,
2013-11-12 11:52:00,40.0,24.7,30.31,North,355,1.0,4.0,54,0.00,,---,0.00,VWS V14.01,2013-11-12 16:52:00,
2013-11-12 12:00:00,39.9,23.7,30.31,NNE,18,0.0,5.0,52,0.00,,---,0.00,VWS V14.01,2013-11-12 17:00:00,
2013-11-12 12:07:00,39.9,23.3,30.31,NNE,30,0.0,5.0,51,0.00,,---,0.00,VWS V14.01,2013-11-12 17:07:00,
2013-11-12 12:22:00,39.9,23.3,30.30,NNW,347,0.0,5.0,51,0.00,,---,0.00,VWS V14.01,2013-11-12 17:22:00,
2013-11-12 12:30:00,39.9,23.7,30.30,NW,305,0.0,5.0,52,0.00,,---,0.00,VWS V14.01,2013-11-12 17:30:00,
2013-11-12 12:37:00,40.0,23.8,30.31,North,360,0.0,2.0,52,0.00,,---,0.00,VWS V14.01,2013-11-12 17:37:00,
2013-11-12 12:52:00,39.9,23.7,30.31,NW,317,3.0,4.0,52,0.00,,---,0.00,VWS V14.01,2013-11-12 17:52:00,
2013-11-12 13:00:00,39.8,23.6,30.31,ENE,71,3.0,7.0,52,0.00,,---,0.00,VWS V14.01,2013-11-12 18:00:00,
2013-11-12 13:07:00,39.7,23.5,30.31,North,360,0.0,5.0,52,0.00,,---,0.00,VWS V14.01,2013-11-12 18:07:00,
2013-11-12 13:22:00,39.5,22.9,30.31,ENE,75,2.0,8.0,51,0.00,,---,0.00,VWS V14.01,2013-11-12 18:22:00,
2013-11-12 13:30:00,39.5,22.9,30.31,West,267,3.0,8.0,51,0.00,,---,0.00,VWS V14.01,2013-11-12 18:30:00,
2013-11-12 13:37:00,39.4,22.8,30.32,NNE,29,0.0,7.0,51,0.00,,---,0.00,VWS V14.01,2013-11-12 18:37:00,
2013-11-12 13:52:00,39.3,23.2,30.33,NE,53,0.0,7.0,52,0.00,,---,0.00,VWS V14.01,2013-11-12 18:52:00,
2013-11-12 14:00:00,39.4,23.7,30.33,NW,310,0.0,7.0,53,0.00,,---,0.00,VWS V14.01,2013-11-12 19:00:00,
2013-11-12 14:07:00,39.4,23.7,30.32,ENE,75,1.0,4.0,53,0.00,,---,0.00,VWS V14.01,2013-11-12 19:07:00,
2013-11-12 14:22:00,39.5,23.4,30.33,NNW,332,0.0,6.0,52,0.00,,---,0.00,VWS V14.01,2013-11-12 19:22:00,
2013-11-12 14:30:00,39.5,22.9,30.33,North,350,0.0,6.0,51,0.00,,---,0.00,VWS V14.01,2013-11-12 19:30:00,
2013-11-12 14:37:00,39.6,22.5,30.33,WNW,295,0.0,8.0,50,0.00,,---,0.00,VWS V14.01,2013-11-12 19:37:00,
2013-11-12 14:52:00,39.5,21.5,30.33,ENE,57,1.0,8.0,48,0.00,,---,0.00,VWS V14.01,2013-11-12 19:52:00,
2013-11-12 15:00:00,39.4,21.4,30.34,North,350,0.0,8.0,48,0.00,,---,0.00,VWS V14.01,2013-11-12 20:00:00,
2013-11-12 15:07:00,39.4,21.8,30.34,NNE,15,0.0,3.0,49,0.00,,---,0.00,VWS V14.01,2013-11-12 20:07:00,
2013-11-12 15:22:00,39.4,21.8,30.35,WNW,294,0.0,7.0,49,0.00,,---,0.00,VWS V14.01,2013-11-12 20:22:00,
2013-11-12 15:30:00,39.3,21.8,30.35,NNW,330,0.0,7.0,49,0.00,,---,0.00,VWS V14.01,2013-11-12 20:30:00,
2013-11-12 15:37:00,39.4,22.8,30.35,North,355,0.0,2.0,51,0.00,,---,0.00,VWS V14.01,2013-11-12 20:37:00,
2013-11-12 15:52:00,39.4,21.8,30.35,NE,36,0.0,8.0,49,0.00,,---,0.00,VWS V14.01,2013-11-12 20:52:00,
2013-11-12 16:00:00,39.4,21.8,30.35,ENE,57,0.0,8.0,49,0.00,,---,0.00,VWS V14.01,2013-11-12 21:00:00,
2013-11-12 16:07:00,39.3,21.8,30.36,NNW,346,0.0,4.0,49,0.00,,---,0.00,VWS V14.01,2013-11-12 21:07:00,
2013-11-12 16:22:00,39.4,21.8,30.36,NNE,19,0.0,4.0,49,0.00,,---,0.00,VWS V14.01,2013-11-12 21:22:00,
2013-11-12 16:30:00,39.3,21.8,30.36,NNW,341,0.0,4.0,49,0.00,,---,0.00,VWS V14.01,2013-11-12 21:30:00,
2013-11-12 16:37:00,39.3,21.8,30.36,NNE,32,0.0,2.0,49,0.00,,---,0.00,VWS V14.01,2013-11-12 21:37:00,
2013-11-12 16:52:00,39.3,21.8,30.37,North,360,0.0,3.0,49,0.00,,---,0.00,VWS V14.01,2013-11-12 21:52:00,
2013-11-12 17:00:00,39.2,22.6,30.36,North,360,0.0,3.0,51,0.00,,---,0.00,VWS V14.01,2013-11-12 22:00:00,
2013-11-12 17:07:00,39.1,22.5,30.37,North,360,0.0,0.0,51,0.00,,---,0.00,VWS V14.01,2013-11-12 22:07:00,
2013-11-12 17:23:00,39.0,22.4,30.37,NNW,327,0.0,0.0,51,0.00,,---,0.00,VWS V14.01,2013-11-12 22:23:00,
2013-11-12 17:30:00,39.0,22.4,30.37,NNE,15,0.0,1.0,51,0.00,,---,0.00,VWS V14.01,2013-11-12 22:30:00,
2013-11-12 17:38:00,39.1,22.0,30.38,NE,51,0.0,2.0,50,0.00,,---,0.00,VWS V14.01,2013-11-12 22:38:00,
2013-11-12 17:53:00,39.3,22.2,30.38,North,360,0.0,5.0,50,0.00,,---,0.00,VWS V14.01,2013-11-12 22:53:00,
2013-11-12 18:00:00,39.3,22.2,30.38,NW,311,0.0,5.0,50,0.00,,---,0.00,VWS V14.01,2013-11-12 23:00:00,
2013-11-12 18:08:00,39.3,21.8,30.39,NE,46,0.0,3.0,49,0.00,,---,0.00,VWS V14.01,2013-11-12 23:08:00,
2013-11-12 18:23:00,39.3,21.3,30.40,ENE,64,0.0,3.0,48,0.00,,---,0.00,VWS V14.01,2013-11-12 23:23:00,
2013-11-12 18:30:00,39.3,21.3,30.40,NNW,338,0.0,4.0,48,0.00,,---,0.00,VWS V14.01,2013-11-12 23:30:00,
2013-11-12 18:38:00,39.3,21.3,30.40,NNW,340,0.0,3.0,48,0.00,,---,0.00,VWS V14.01,2013-11-12 23:38:00,
2013-11-12 18:53:00,39.1,21.6,30.41,NE,56,0.0,3.0,49,0.00,,---,0.00,VWS V14.01,2013-11-12 23:53:00,
2013-11-12 19:00:00,38.9,21.4,30.41,NNW,328,0.0,3.0,49,0.00,,---,0.00,VWS V14.01,2013-11-13 00:00:00,
2013-11-12 19:08:00,38.9,21.4,30.41,ENE,72,0.0,2.0,49,0.00,,---,0.00,VWS V14.01,2013-11-13 00:08:00,
2013-11-12 19:23:00,38.7,21.2,30.41,ENE,72,0.0,3.0,49,0.00,,---,0.00,VWS V14.01,2013-11-13 00:23:00,
2013-11-12 19:30:00,38.6,21.1,30.42,NNE,21,0.0,3.0,49,0.00,,---,0.00,VWS V14.01,2013-11-13 00:30:00,
2013-11-12 19:38:00,38.4,20.9,30.42,ENE,66,0.0,1.0,49,0.00,,---,0.00,VWS V14.01,2013-11-13 00:38:00,
2013-11-12 19:53:00,38.2,21.2,30.42,North,355,0.0,3.0,50,0.00,,---,0.00,VWS V14.01,2013-11-13 00:53:00,
2013-11-12 20:00:00,38.0,21.0,30.42,North,360,0.0,3.0,50,0.00,,---,0.00,VWS V14.01,2013-11-13 01:00:00,
2013-11-12 20:08:00,37.9,20.9,30.42,ENE,78,1.0,5.0,50,0.00,,---,0.00,VWS V14.01,2013-11-13 01:08:00,
2013-11-12 20:23:00,37.6,20.7,30.43,NE,34,0.0,5.0,50,0.00,,---,0.00,VWS V14.01,2013-11-13 01:23:00,
2013-11-12 20:30:00,37.4,20.0,30.43,ENE,77,0.0,5.0,49,0.00,,---,0.00,VWS V14.01,2013-11-13 01:30:00,
2013-11-12 20:38:00,37.2,20.3,30.44,NE,55,0.0,2.0,50,0.00,,---,0.00,VWS V14.01,2013-11-13 01:38:00,
2013-11-12 20:53:00,36.9,20.5,30.44,ENE,67,1.0,2.0,51,0.00,,---,0.00,VWS V14.01,2013-11-13 01:53:00,
2013-11-12 21:00:00,36.7,20.3,30.44,NNE,27,0.0,2.0,51,0.00,,---,0.00,VWS V14.01,2013-11-13 02:00:00,
2013-11-12 21:08:00,36.5,19.6,30.45,ENE,71,0.0,2.0,50,0.00,,---,0.00,VWS V14.01,2013-11-13 02:08:00,
2013-11-12 21:23:00,36.2,20.3,30.45,North,355,0.0,2.0,52,0.00,,---,0.00,VWS V14.01,2013-11-13 02:23:00,
2013-11-12 21:30:00,35.9,20.0,30.45,NW,323,0.0,2.0,52,0.00,,---,0.00,VWS V14.01,2013-11-13 02:30:00,
2013-11-12 21:38:00,35.6,20.6,30.45,NNE,16,0.0,1.0,54,0.00,,---,0.00,VWS V14.01,2013-11-13 02:38:00,
2013-11-12 21:53:00,35.5,21.0,30.45,North,355,0.0,1.0,55,0.00,,---,0.00,VWS V14.01,2013-11-13 02:53:00,
2013-11-12 22:00:00,35.2,21.1,30.46,North,355,0.0,1.0,56,0.00,,---,0.00,VWS V14.01,2013-11-13 03:00:00,
2013-11-12 22:08:00,34.6,21.4,30.46,North,355,0.0,0.0,58,0.00,,---,0.00,VWS V14.01,2013-11-13 03:08:00,
2013-11-12 22:23:00,33.7,21.7,30.46,North,355,0.0,0.0,61,0.00,,---,0.00,VWS V14.01,2013-11-13 03:23:00,
2013-11-12 22:30:00,33.4,21.4,30.46,North,355,0.0,0.0,61,0.00,,---,0.00,VWS V14.01,2013-11-13 03:30:00,
2013-11-12 22:38:00,33.2,21.6,30.46,North,355,0.0,0.0,62,0.00,,---,0.00,VWS V14.01,2013-11-13 03:38:00,
2013-11-12 22:53:00,33.0,21.0,30.46,North,355,0.0,0.0,61,0.00,,---,0.00,VWS V14.01,2013-11-13 03:53:00,
2013-11-12 23:00:00,33.1,20.7,30.47,North,355,0.0,1.0,60,0.00,,---,0.00,VWS V14.01,2013-11-13 04:00:00,
2013-11-12 23:08:00,33.2,21.2,30.47,North,355,0.0,0.0,61,0.00,,---,0.00,VWS V14.01,2013-11-13 04:08:00,
2013-11-12 23:23:00,33.3,21.3,30.47,North,5,0.0,1.0,61,0.00,,---,0.00,VWS V14.01,2013-11-13 04:23:00,
2013-11-12 23:30:00,33.0,21.4,30.47,North,360,0.0,1.0,62,0.00,,---,0.00,VWS V14.01,2013-11-13 04:30:00,
2013-11-12 23:38:00,32.6,21.8,30.47,North,5,0.0,0.0,64,0.00,,---,0.00,VWS V14.01,2013-11-13 04:38:00,
2013-11-12 23:53:00,31.9,22.2,30.47,North,5,0.0,0.0,67,0.00,,---,0.00,VWS V14.01,2013-11-13 04:53:00,